(19601) = 2000 VV10 = 1999 ND42

Discovered at Socorro on 1999-07-14 by LINEAR.

Orbit

Orbit type: Main Belt

Note: WebGL enabled browser required.

epoch2024-03-31.0
epoch JD2460400.5
perihelion date2022-09-14.90219
perihelion JD2459837.40219
argument of perihelion (°)156.60091
ascending node (°)157.94928
inclination (°)1.61074
eccentricity0.1901961
perihelion distance (AU)2.5915822
Tisserand w.r.t. Jupiter3.2
ΔV w.r.t. Earth (km/sec)10.1
semimajor axis (AU)3.2002591
mean anomaly (°)96.94155
mean daily motion (°/day)0.17215760
aphelion distance (AU)3.809
period (years)5.73
P-vector [x]0.70159271
P-vector [y]-0.65813787
P-vector [z]-0.27317068
Q-vector [x]0.71250004
Q-vector [y]0.65359788
Q-vector [z]0.25525184
absolute magnitude14.38
phase slope0.15
uncertainty0
referenceMPEC 2024-C163
observations used1378
oppositions23
arc length (days)11994
first opposition used1991
last opposition used2023
residual rms (arc-secs)0.70
perturbers coarse indicatorM-v
perturbers precise indicator003Ek
first observation date used1991-02-14.0
last observation date used2023-12-17.0
computer nameMPCLINUX
JD of orbit computation2456819.425734
perihelion JD uncertainty (days)7.8747E-05
argument of perihelion uncertainty (°)1.4289E-04
ascending node uncertainty (°)1.4254E-04
inclination uncertainty (°)3.9174E-06
eccentricity uncertainty 3.6686E-08
perihelion distance uncertainty (AU)1.2098E-07
Minimum Orbit Intersection Distances (in AU)
for orbit epoch: 2460200.5, reference: E2024-CG3
Mercury2.17312
Venus1.87159
Earth1.58367
Mars1.20785
Jupiter1.48274
Saturn5.33733
Uranus14.6917
Neptune26.4509

Observations

1408 total observations over interval: 1991 02 14.25595 – 2023 12 17.232513
These data are available for download (format description).

Date (UT) J2000 RA J2000 Dec Magn Location Ref
1991 02 14.25595 09 08 26.77 +15 36 54.9 20.9 V 691 – Steward Observatory, Kitt Peak-Spacewatch MPS 79000
1991 02 14.27744 09 08 25.78 +15 37 00.0 20.7 V 691 – Steward Observatory, Kitt Peak-Spacewatch MPS 79000
1991 02 14.30039 09 08 24.77 +15 37 05.8 20.3 V 691 – Steward Observatory, Kitt Peak-Spacewatch MPS 79000
1992 03 25.37694 12 56 28.63 -04 44 17.2 19.6 V 691 – Steward Observatory, Kitt Peak-Spacewatch MPS 20828
1992 03 25.39725 12 56 27.72 -04 44 11.0   691 – Steward Observatory, Kitt Peak-Spacewatch MPS 20828
1998 03 29.29902 14 03 03.27 -10 48 43.2 20.0   704 – Lincoln Laboratory ETS, New Mexico MPS 20828
1998 03 29.33960 14 03 01.75 -10 48 34.7 20.2   704 – Lincoln Laboratory ETS, New Mexico MPS 20828
1998 03 29.35985 14 03 01.00 -10 48 30.0 19.9   704 – Lincoln Laboratory ETS, New Mexico MPS 20828
1998 03 29.38012 14 03 00.22 -10 48 27.4 19.9   704 – Lincoln Laboratory ETS, New Mexico MPS 20828
1998 04 22.24809 13 46 31.96 -09 07 33.4 19.3   704 – Lincoln Laboratory ETS, New Mexico MPS 20828
1998 04 22.26697 13 46 30.91 -09 07 28.7 19.0   704 – Lincoln Laboratory ETS, New Mexico MPS 20828
1998 04 22.28578 13 46 30.23 -09 07 23.6 19.1   704 – Lincoln Laboratory ETS, New Mexico MPS 20828
1998 04 22.30462 13 46 29.27 -09 07 17.5 19.7   704 – Lincoln Laboratory ETS, New Mexico MPS 20828
1998 04 22.32378 13 46 28.01 -09 07 09.1 19.8   704 – Lincoln Laboratory ETS, New Mexico MPS 20828
1999 07 14.36502 20 42 38.66 -16 38 45.2 18.9   704 – Lincoln Laboratory ETS, New Mexico MPS 5693
1999 07 14.37748 20 42 38.18 -16 38 47.7 18.7   704 – Lincoln Laboratory ETS, New Mexico MPS 5693
1999 07 14.38991 20 42 37.68 -16 38 49.3 19.1   704 – Lincoln Laboratory ETS, New Mexico MPS 5693
1999 07 14.40230 20 42 37.12 -16 38 50.9 19.0   704 – Lincoln Laboratory ETS, New Mexico MPS 5693
1999 07 16.25178 20 41 22.42 -16 44 16.8 18.8   704 – Lincoln Laboratory ETS, New Mexico MPS 5693
1999 07 16.26457 20 41 21.86 -16 44 19.3 18.7   704 – Lincoln Laboratory ETS, New Mexico MPS 5693
1999 07 16.27740 20 41 21.36 -16 44 22.2 18.7   704 – Lincoln Laboratory ETS, New Mexico MPS 5693
1999 07 16.29024 20 41 20.84 -16 44 24.1 18.4   704 – Lincoln Laboratory ETS, New Mexico MPS 5693
1999 08 03.29127 20 27 49.80 -17 42 51.6 18.1 V 691 – Steward Observatory, Kitt Peak-Spacewatch MPS 5924
1999 08 03.31339 20 27 48.74 -17 42 55.9 18.2 V 691 – Steward Observatory, Kitt Peak-Spacewatch MPS 5924
1999 08 03.33546 20 27 47.69 -17 43 00.2 18.2 V 691 – Steward Observatory, Kitt Peak-Spacewatch MPS 5924
1999 08 07.22309 20 24 52.55 -17 55 43.3 18.5 R 699 – Lowell Observatory-LONEOS MPS 6082
1999 08 07.24852 20 24 51.28 -17 55 48.5   699 – Lowell Observatory-LONEOS MPS 6082
1999 08 07.27398 20 24 50.19 -17 55 54.0   699 – Lowell Observatory-LONEOS MPS 6082
1999 08 21.18924 20 15 47.25 -18 36 27.0 18.4 V 691 – Steward Observatory, Kitt Peak-Spacewatch MPS 5924
1999 08 21.21214 20 15 46.42 -18 36 31.3 18.4 V 691 – Steward Observatory, Kitt Peak-Spacewatch MPS 5924
1999 08 21.23435 20 15 45.69 -18 36 34.3 18.6 V 691 – Steward Observatory, Kitt Peak-Spacewatch MPS 5924
2000 11 01.27755 03 03 18.27 +15 06 00.3 18.7   704 – Lincoln Laboratory ETS, New Mexico MPS 21693
2000 11 01.29153 03 03 17.62 +15 05 58.1 19.1   704 – Lincoln Laboratory ETS, New Mexico MPS 21693
2000 11 01.30540 03 03 16.89 +15 05 54.3 19.0   704 – Lincoln Laboratory ETS, New Mexico MPS 21693
2000 11 01.31928 03 03 16.21 +15 05 51.7 19.0   704 – Lincoln Laboratory ETS, New Mexico MPS 21693
2000 11 01.33314 03 03 15.48 +15 05 48.6 19.4   704 – Lincoln Laboratory ETS, New Mexico MPS 21693
2000 11 02.29221 03 02 29.73 +15 02 22.8 19.4   704 – Lincoln Laboratory ETS, New Mexico MPS 21693
2000 11 02.30576 03 02 28.92 +15 02 21.2 19.8   704 – Lincoln Laboratory ETS, New Mexico MPS 21693
2000 11 02.31931 03 02 28.37 +15 02 15.8 19.4   704 – Lincoln Laboratory ETS, New Mexico MPS 21693
2000 11 02.33288 03 02 27.71 +15 02 13.7 19.4   704 – Lincoln Laboratory ETS, New Mexico MPS 21693
2000 11 18.26880 02 49 50.67 +14 06 07.2 18.7 R 699 – Lowell Observatory-LONEOS MPS 26232
2000 11 18.28452 02 49 49.89 +14 06 03.8   699 – Lowell Observatory-LONEOS MPS 26232
2000 11 18.30026 02 49 49.17 +14 06 01.7   699 – Lowell Observatory-LONEOS MPS 26232
2000 11 18.31593 02 49 48.47 +14 05 57.8   699 – Lowell Observatory-LONEOS MPS 26232
2000 11 21.23867 02 47 39.48 +13 56 35.6 18.3   704 – Lincoln Laboratory ETS, New Mexico MPS 22249
2000 11 21.25388 02 47 38.84 +13 56 31.8 19.1   704 – Lincoln Laboratory ETS, New Mexico MPS 22249
2000 11 21.26881 02 47 38.21 +13 56 29.7 18.5   704 – Lincoln Laboratory ETS, New Mexico MPS 22249
2000 11 21.28371 02 47 37.51 +13 56 26.4 18.8   704 – Lincoln Laboratory ETS, New Mexico MPS 22249
2000 11 27.23142 02 43 34.58 +13 39 00.6 20.0   704 – Lincoln Laboratory ETS, New Mexico MPS 22249
2000 11 27.24583 02 43 33.91 +13 38 58.1 19.8   704 – Lincoln Laboratory ETS, New Mexico MPS 22249
2000 11 27.27467 02 43 32.72 +13 38 52.3 19.5   704 – Lincoln Laboratory ETS, New Mexico MPS 22249
2001 12 14.37868 07 36 59.35 +19 51 57.1 19.2   704 – Lincoln Laboratory ETS, New Mexico MPS 46119
2001 12 14.39389 07 36 58.77 +19 51 57.6 19.9   704 – Lincoln Laboratory ETS, New Mexico MPS 46119
2001 12 14.40909 07 36 58.24 +19 52 00.5 19.7   704 – Lincoln Laboratory ETS, New Mexico MPS 46119
2001 12 14.43951 07 36 57.13 +19 52 01.1 19.5   704 – Lincoln Laboratory ETS, New Mexico MPS 46119
2001 12 17.37818 07 35 05.92 +19 56 02.1 19.0   704 – Lincoln Laboratory ETS, New Mexico MPS 46119
2001 12 17.38848 07 35 05.56 +19 56 03.6 20.0   644 – Palomar Mountain/NEAT MPS 50918
2001 12 17.39339 07 35 05.32 +19 56 03.7 19.8   704 – Lincoln Laboratory ETS, New Mexico MPS 46119
2001 12 17.40023 07 35 05.08 +19 56 04.4 20.0   644 – Palomar Mountain/NEAT MPS 50918
2001 12 17.40861 07 35 04.71 +19 56 05.7 19.6   704 – Lincoln Laboratory ETS, New Mexico MPS 46119
2001 12 17.41080 07 35 04.61 +19 56 05.6 20.2   644 – Palomar Mountain/NEAT MPS 50918
2001 12 17.42383 07 35 04.15 +19 56 06.4 19.2   704 – Lincoln Laboratory ETS, New Mexico MPS 46119
2001 12 17.43905 07 35 03.53 +19 56 08.2 20.3   704 – Lincoln Laboratory ETS, New Mexico MPS 46119
2001 12 20.30860 07 33 07.66 +20 00 20.1 19.3   704 – Lincoln Laboratory ETS, New Mexico MPS 46119
2001 12 20.32380 07 33 07.10 +20 00 22.0 19.9   704 – Lincoln Laboratory ETS, New Mexico MPS 46119
2001 12 20.33887 07 33 06.38 +20 00 23.7 20.2   704 – Lincoln Laboratory ETS, New Mexico MPS 46119
2001 12 20.35441 07 33 05.69 +20 00 24.4 19.6   704 – Lincoln Laboratory ETS, New Mexico MPS 46119
2001 12 20.36950 07 33 05.09 +20 00 25.6 19.9   704 – Lincoln Laboratory ETS, New Mexico MPS 46119
2002 01 09.34252 07 17 28.42 +20 34 03.3 19.4   704 – Lincoln Laboratory ETS, New Mexico MPS 48170
2002 01 09.35004 07 17 28.26 +20 34 04.4 20.1   608 – Haleakala-AMOS MPS 48170
2002 01 09.35768 07 17 27.72 +20 34 05.1 19.4   704 – Lincoln Laboratory ETS, New Mexico MPS 48170
2002 01 09.36038 07 17 27.71 +20 34 05.7 20.5   608 – Haleakala-AMOS MPS 48170
2002 01 09.37119 07 17 27.15 +20 34 06.7 20.3   608 – Haleakala-AMOS MPS 48170
2002 01 09.37286 07 17 26.97 +20 34 06.6 19.8   704 – Lincoln Laboratory ETS, New Mexico MPS 48170
2002 01 09.38814 07 17 26.21 +20 34 08.0 19.5   704 – Lincoln Laboratory ETS, New Mexico MPS 48170
2002 01 12.14738 07 15 10.10 +20 38 54.6 19.7   704 – Lincoln Laboratory ETS, New Mexico MPS 48170
2002 01 12.16290 07 15 09.48 +20 38 56.0 19.6   704 – Lincoln Laboratory ETS, New Mexico MPS 48170
2002 01 12.17840 07 15 08.67 +20 38 58.5 20.0   704 – Lincoln Laboratory ETS, New Mexico MPS 48170
2002 01 12.19394 07 15 07.88 +20 38 59.2 19.8   704 – Lincoln Laboratory ETS, New Mexico MPS 48170
2002 01 12.20967 07 15 07.17 +20 39 00.8 20.1   704 – Lincoln Laboratory ETS, New Mexico MPS 48170
2002 01 13.23558 07 14 16.71 +20 40 45.2 19.6   704 – Lincoln Laboratory ETS, New Mexico MPS 48170
2002 01 13.23608 07 14 16.70 +20 40 46.0 19.0   704 – Lincoln Laboratory ETS, New Mexico MPS 48170
2002 01 13.25071 07 14 15.96 +20 40 47.7 19.8   704 – Lincoln Laboratory ETS, New Mexico MPS 48170
2002 01 13.25122 07 14 15.95 +20 40 47.6 19.4   704 – Lincoln Laboratory ETS, New Mexico MPS 48170
